SCP
-0 0 1 1 0 0 0 0 0 0 0 0 0 0 0 0 0 0 0 0 0 0 0 0 0 0 0 0 0 0 0 0 0 0 0 0 0 0 0 0 0 0 0
0 0 1 1 1 0 0 0 0 0 0 0 0 0 0 0 0 0 0 0 0 0 0 0 0 0 0 0 0 0 0 0 0 0 0 0 0 0 0 0 0 0 0
0 0 1 1 1 0 0 0 0 0 0 0 0 0 0 0 0 0 0 0 0 0 0 0 0 0 0 0 0 0 0 0 0 0 0 1 0 0 0 0 0 0 0
0 0 1 1 1 1 1 1 1 1 0 0 0 0 0 0 0 0 0 0 0 0 0 0 0 0 0 0 0 0 0 0 0 0 0 0 0 0 0 0 0 0 0
0 0 0 1 1 1 1 1 1 1 1 0 0 0 0 0 0 0 0 0 0 0 0 0 0 0 0 0 0 0 0 0 0 0 0 0 0 0 0 0 0 0 0
0 0 1 1 1 1 1 1 1 0 0 0 0 0 0 0 0 0 0 0 0 0 0 0 0 0 0 0 0 0 0 0 0 0 0 0 1 0 0 0 0 0 0
0 0 1 1 1 1 1 1 1 1 1 1 0 0 0 0 0 0 0 0 0 0 0 0 0 0 0 0 0 0 0 0 0 0 0 0 0 1 1 0 0 0 0
0 0 1 1 1 1 1 1 1 1 1 1 1 1 0 0 0 0 0 0 0 0 0 0 0 0 0 0 0 0 0 0 0 0 0 0 0 1 1 1 0 0 0
0 0 1 1 2 1 1 1 1 1 1 1 1 1 1 0 0 0 0 0 0 0 0 0 0 0 0 0 0 0 0 0 0 0 0 0 0 1 1 1 0 1 0
0 0 1 1 2 2 1 2 2 2 1 1 1 1 0 0 0 0 0 0 0 0 0 0 0 0 0 0 0 0 0 0 0 0 0 0 0 1 1 1 1 1 1
0 0 1 1 2 1 2 2 2 1 1 1 0 0 0 0 0 0 0 0 0 0 0 0 0 0 0 0 0 0 0 0 0 0 0 0 0 0 1 1 1 1 0
0 0 1 1 1 1 1 1 1 1 0 0 0 0 0 0 0 0 0 0 0 0 0 0 0 0 0 0 0 0 0 0 0 0 0 0 0 0 1 1 1 1 0
0 0 0 0 0 0 0 0 0 0 0 0 0 0 0 0 0 0 0 0 0 0 0 0 0 0 0 0 0 0 0 0 0 0 0 0 0 0 1 1 1 0 0
0 0 0 0 0 0 0 0 0 0 0 0 0 0 0 0 0 0 0 0 0 0 0 0 0 0 0 0 0 0 0 0 0 0 0 0 0 0 1 1 0 0 0
0 0 0 0 0 0 0 0 0 0 0 0 0 0 0 0 0 0 0 0 0 0 0 0 0 0 0 0 0 0 0 0 0 0 0 0 0 0 1 1 1 0 0
0 0 0 0 0 0 0 0 0 0 0 0 0 0 0 0 0 0 0 0 0 0 0 0 0 0 0 0 0 0 0 0 0 0 0 0 0 0 1 0 0 0 0
0 0 0 0 0 0 0 0 0 0 0 0 0 0 0 0 0 0 0 0 0 0 0 0 0 0 0 0 0 0 0 0 0 0 0 0 0 0 1 1 0 0 0
0 0 0 0 0 0 0 0 0 0 0 0 0 0 0 0 0 0 0 0 0 0 0 0 0 0 0 0 0 0 0 0 0 0 0 0 0 0 0 1 0 0 0
0 0 0 0 0 0 0 0 0 0 0 0 0 0 0 0 0 0 0 0 0 0 0 0 0 0 0 0 0 0 0 0 0 0 0 0 0 0 0 0 0 0 0
0 0 0 0 0 0 0 0 0 0 0 0 0 0 0 0 0 0 0 0 0 0 0 0 0 0 0 0 0 0 0 0 0 0 0 0 0 0 0 0 1 0 0
0 0 0 0 0 0 0 0 0 0 0 0 0 0 0 0 0 0 0 0 0 0 0 0 0 0 0 0 0 0 0 0 0 0 0 0 0 0 0 0 0 0 0
0 0 0 0 0 0 0 0 0 0 0 0 0 0 0 0 0 0 0 0 0 0 0 0 0 0 0 0 0 0 0 0 0 0 0 0 0 0 0 0 0 0 0
0 0 0 0 0 0 0 0 0 0 0 0 0 0 0 0 0 0 0 0 0 0 0 0 -0 0 0 0 0 0 0 0 0 0 0 0 0 0 0 0 0 0 0
0 0 0 0 0 0 0 0 0 0 0 0 0 0 0 0 0 0 0 0 0 0 -0 0 0 0 0 0 0 0 0 0 0 0 0 0 0 0 0 0 0 0 0
0 0 0 0 0 0 0 0 0 0 0 0 0 0 0 0 0 0 0 0 -0 0 0 0 0 0 0 0 0 0 0 0 0 0 0 0 0 0 0 0 0 0 0
0 0 0 0 0 0 0 0 0 0 0 0 0 0 0 0 0 -0 0 0 0 0 0 0 0 0 0 0 0 0 0 0 0 0 0 0 0 0 0 0 0 0 0
Wind_Speed_500mb
45 42 42 39 36 33 26 20 17 17 17 17 16 17 18 18 17 18 18 17 20 22 21 23 22 25 30 33 37 40 39 37 37 36 34 38 32 28 22 20 23 21 16
25 35 44 43 36 31 23 21 20 21 19 19 19 19 19 19 19 19 18 18 17 21 21 21 22 24 26 30 33 38 41 42 39 39 37 32 38 34 26 24 28 24 19
33 27 36 41 33 26 24 23 23 22 22 22 21 21 21 21 21 18 22 26 24 21 20 20 23 23 25 27 30 33 38 43 44 39 40 34 34 38 33 30 29 26 25
30 30 30 36 33 28 25 25 25 24 24 25 26 26 25 24 24 22 26 30 31 28 23 21 23 25 25 26 31 33 37 41 43 42 40 39 33 35 39 35 33 30 30
31 27 30 34 33 30 26 26 24 25 27 28 31 31 31 26 27 34 28 34 32 30 28 27 26 25 25 27 29 34 37 37 37 40 42 41 35 39 37 38 36 35 36
23 24 30 31 30 30 26 24 22 24 26 30 33 32 30 33 35 39 36 37 35 36 36 34 31 35 31 30 31 31 36 37 33 35 40 42 39 40 43 37 35 41 42
23 25 27 30 31 26 21 18 19 19 21 26 30 28 35 37 39 40 39 38 37 40 38 37 36 36 32 37 33 34 32 33 33 33 36 41 43 40 42 45 37 36 39
18 23 31 34 34 29 23 19 19 18 19 26 26 31 33 35 39 44 45 45 45 43 44 43 42 40 41 42 39 38 36 33 31 36 34 39 41 41 43 45 46 39 37
28 27 35 36 36 35 30 22 21 20 24 28 27 28 29 31 38 44 45 48 51 52 48 45 47 46 45 44 43 42 40 37 36 38 35 36 40 40 42 47 46 46 41
37 37 40 40 40 37 34 27 23 24 28 31 29 28 29 33 32 34 36 33 33 38 40 43 47 46 49 48 48 45 44 41 38 37 37 36 40 40 42 44 46 49 46
51 48 47 45 43 38 35 30 27 28 32 32 30 29 31 30 28 25 22 26 27 30 31 28 34 39 47 50 52 49 45 44 43 39 35 38 40 40 43 44 48 50 52
60 57 55 50 48 43 37 33 30 32 32 31 31 29 30 27 27 23 23 22 22 25 27 32 35 36 35 44 48 48 48 46 43 42 35 38 41 41 44 44 48 52 55
60 59 57 54 51 47 38 33 31 33 29 29 27 26 27 27 26 23 21 20 20 20 25 29 35 30 36 40 41 44 46 45 40 41 40 39 42 43 44 45 45 52 57
66 63 58 55 54 49 39 33 31 30 27 23 19 20 24 25 23 23 23 20 21 21 24 23 24 29 30 35 37 42 43 39 35 40 41 41 42 44 41 42 43 50 57
70 69 62 58 55 48 40 34 29 25 21 18 17 19 21 23 25 27 27 26 21 22 26 24 23 24 27 30 34 38 40 39 37 38 39 41 42 45 42 39 43 48 58
74 76 66 60 53 47 39 32 24 18 15 17 19 21 23 24 25 28 29 29 25 23 23 23 25 24 26 30 32 33 35 33 37 38 38 39 42 44 42 40 45 49 61
85 78 67 62 56 48 38 28 20 13 15 19 23 25 28 30 28 27 28 28 28 26 24 21 21 24 26 31 31 34 33 33 35 34 33 36 38 41 40 41 44 49 69
89 79 65 61 56 45 36 25 17 14 14 18 23 26 30 32 30 27 27 25 26 27 23 23 23 26 25 30 32 32 32 31 34 31 30 30 34 37 39 42 43 45 74
87 74 61 61 54 43 32 25 20 17 15 20 24 26 30 30 27 26 25 21 25 25 23 25 23 26 27 27 28 31 30 31 32 28 29 27 30 33 36 38 42 45 61
74 66 57 57 49 39 32 27 22 14 17 24 27 29 28 26 24 24 23 22 25 23 22 25 24 26 26 22 25 26 28 30 28 24 28 26 28 28 30 29 36 37 52
61 59 62 58 46 40 32 25 20 14 20 23 27 30 24 22 24 25 23 21 24 22 22 23 25 29 29 23 19 20 18 24 20 22 23 20 27 27 26 30 38 38 48
61 68 64 49 40 33 25 20 15 16 21 25 29 25 20 18 21 25 22 20 18 17 21 23 27 33 31 27 19 17 11 19 22 19 17 20 18 19 22 23 36 39 52
65 71 55 41 35 27 21 15 11 14 19 23 21 13 13 18 18 17 17 17 14 14 13 14 20 32 33 30 22 11 9 8 18 12 13 12 13 17 12 29 23 53 51
68 59 44 38 32 23 16 11 9 13 18 17 16 10 12 13 7 4 9 11 10 9 11 15 19 25 28 29 26 21 10 11 13 11 8 8 5 12 11 29 28 60 71
60 48 40 35 27 17 13 10 6 14 16 16 14 12 10 9 3 6 8 10 9 8 10 15 21 26 24 22 28 36 22 3 11 11 18 28 15 16 23 38 21 42 51
51 44 39 33 21 13 12 9 5 14 12 15 13 14 11 9 8 10 12 9 8 7 11 15 21 22 22 19 22 24 28 15 18 23 37 44 37 30 27 26 42 59 75
Wind_Direction_500mb
191 192 198 206 208 213 219 229 241 257 272 274 272 274 276 271 260 256 258 255 257 260 257 266 258 251 249 241 236 233 232 227 225 227 225 223 221 223 232 240 209 202 197
190 190 198 207 211 213 223 232 243 258 267 276 281 284 283 278 274 269 264 270 259 257 263 269 269 260 252 246 240 236 234 234 228 226 229 230 224 221 224 230 214 214 210
180 193 198 206 209 216 229 235 245 263 272 278 277 279 282 278 277 263 283 288 284 267 252 257 268 271 262 255 247 239 237 235 235 229 229 228 231 226 222 219 214 215 199
179 185 194 203 208 218 225 231 246 262 271 269 267 275 280 268 261 260 284 284 284 274 270 253 248 262 267 261 256 248 241 239 236 236 231 228 227 230 226 219 213 215 206
178 189 197 202 209 216 222 232 252 273 275 275 273 274 275 257 263 259 277 283 277 267 266 270 272 266 267 270 262 257 250 245 238 237 232 231 223 224 223 223 224 218 207
177 187 199 203 207 214 221 236 261 274 281 283 280 279 268 266 266 265 278 275 265 266 264 258 251 256 262 264 267 264 259 253 242 238 233 227 228 219 224 222 224 222 212
190 193 202 205 211 210 218 239 259 275 289 294 287 273 266 268 270 267 270 264 266 264 261 259 259 259 252 257 257 262 260 254 243 241 235 227 227 225 222 221 224 226 227
210 202 207 207 213 215 217 234 252 259 290 303 293 273 271 269 269 267 265 263 264 258 258 261 254 254 254 251 252 254 256 247 243 244 238 230 224 227 225 223 223 224 226
211 219 214 213 214 217 224 239 253 268 288 301 291 274 265 266 272 273 271 265 258 254 256 256 255 252 251 250 247 248 249 240 241 241 235 231 223 226 225 226 222 222 226
217 223 223 217 215 220 225 240 255 277 290 296 289 275 272 277 275 278 272 268 265 263 251 253 257 257 252 249 249 247 243 239 238 242 234 231 224 223 226 226 227 224 224
220 223 224 221 217 221 227 242 257 277 290 291 282 275 274 278 280 281 276 272 265 263 258 256 260 258 246 246 246 244 240 238 237 240 235 230 229 222 224 224 226 225 221
223 224 223 222 220 219 227 240 259 280 290 284 278 274 270 273 287 279 287 278 271 265 258 249 258 256 243 243 241 240 237 237 238 234 234 232 228 224 225 225 225 226 220
231 226 226 221 220 223 229 242 263 278 277 272 273 276 273 273 287 275 283 276 273 269 262 258 258 260 242 239 240 236 233 234 240 234 234 234 229 226 228 227 229 224 221
232 232 228 221 221 224 230 243 261 272 271 275 278 280 276 278 276 271 272 275 269 270 271 272 264 255 246 237 235 232 228 237 240 230 232 234 231 228 231 232 233 225 217
235 233 229 223 225 225 234 243 265 269 276 279 281 286 288 283 275 268 268 265 273 272 265 261 262 255 244 231 225 227 228 238 237 227 229 233 232 228 231 233 229 223 213
238 236 230 226 227 227 232 249 261 262 278 279 289 286 283 286 281 271 266 265 260 272 265 258 260 250 239 230 225 227 228 236 228 224 231 235 230 228 231 235 233 224 210
238 233 231 228 227 224 232 247 249 257 281 289 291 287 281 281 281 274 269 261 255 262 261 256 258 245 239 225 217 218 224 233 224 224 237 234 227 229 233 237 238 222 212
238 232 229 227 225 220 232 240 234 250 276 302 296 291 283 278 275 274 268 263 253 255 257 256 262 242 236 224 216 220 227 233 223 230 238 227 227 228 235 240 236 212 210
237 231 227 224 216 219 225 225 228 244 282 304 306 298 285 273 274 273 274 267 247 248 254 257 255 238 230 226 223 227 229 227 223 236 228 225 227 232 239 245 235 209 204
236 229 225 210 205 213 218 219 229 258 289 302 310 305 284 271 275 270 276 262 241 248 254 254 248 231 221 220 222 225 230 223 226 235 226 229 238 238 244 250 230 210 203
232 218 205 198 204 211 215 221 232 269 299 307 309 304 284 270 275 276 275 256 238 251 258 249 238 221 208 206 208 213 219 215 230 234 229 242 244 245 248 239 222 219 212
220 200 194 196 208 211 210 226 250 281 308 312 314 304 282 279 285 274 265 240 241 251 254 247 233 205 197 196 197 190 197 214 230 238 241 249 236 243 244 220 212 225 213
198 189 186 196 204 201 208 229 251 294 318 319 320 307 293 295 290 270 234 223 237 247 251 223 202 189 195 194 186 175 165 194 201 210 222 213 226 239 215 220 208 192 208
184 178 183 194 194 196 211 220 259 314 337 334 333 323 316 316 302 196 190 210 216 218 214 190 181 184 191 192 192 179 171 192 172 154 147 211 185 182 197 205 157 180 179
174 175 183 187 185 194 209 221 277 338 334 338 332 325 305 311 215 205 186 178 183 196 181 174 176 179 187 204 203 183 187 183 204 177 152 162 171 179 181 174 164 163 177
171 177 181 183 178 193 206 211 303 342 340 338 339 327 297 289 205 178 160 148 152 171 171 178 178 184 187 200 204 211 214 224 196 186 156 160 154 159 162 169 170 161 164
Wind_Speed_850mb
45 42 42 39 36 33 26 20 17 17 17 17 16 17 18 18 17 18 18 17 20 22 21 23 22 25 30 33 37 40 39 37 37 36 34 38 32 28 22 20 23 21 16
25 35 44 43 36 31 23 21 20 21 19 19 19 19 19 19 19 19 18 18 17 21 21 21 22 24 26 30 33 38 41 42 39 39 37 32 38 34 26 24 28 24 19
33 27 36 41 33 26 24 23 23 22 22 22 21 21 21 21 21 18 22 26 24 21 20 20 23 23 25 27 30 33 38 43 44 39 40 34 34 38 33 30 29 26 25
30 30 30 36 33 28 25 25 25 24 24 25 26 26 25 24 24 22 26 30 31 28 23 21 23 25 25 26 31 33 37 41 43 42 40 39 33 35 39 35 33 30 30
31 27 30 34 33 30 26 26 24 25 27 28 31 31 31 26 27 34 28 34 32 30 28 27 26 25 25 27 29 34 37 37 37 40 42 41 35 39 37 38 36 35 36
23 24 30 31 30 30 26 24 22 24 26 30 33 32 30 33 35 39 36 37 35 36 36 34 31 35 31 30 31 31 36 37 33 35 40 42 39 40 43 37 35 41 42
23 25 27 30 31 26 21 18 19 19 21 26 30 28 35 37 39 40 39 38 37 40 38 37 36 36 32 37 33 34 32 33 33 33 36 41 43 40 42 45 37 36 39
18 23 31 34 34 29 23 19 19 18 19 26 26 31 33 35 39 44 45 45 45 43 44 43 42 40 41 42 39 38 36 33 31 36 34 39 41 41 43 45 46 39 37
28 27 35 36 36 35 30 22 21 20 24 28 27 28 29 31 38 44 45 48 51 52 48 45 47 46 45 44 43 42 40 37 36 38 35 36 40 40 42 47 46 46 41
37 37 40 40 40 37 34 27 23 24 28 31 29 28 29 33 32 34 36 33 33 38 40 43 47 46 49 48 48 45 44 41 38 37 37 36 40 40 42 44 46 49 46
51 48 47 45 43 38 35 30 27 28 32 32 30 29 31 30 28 25 22 26 27 30 31 28 34 39 47 50 52 49 45 44 43 39 35 38 40 40 43 44 48 50 52
60 57 55 50 48 43 37 33 30 32 32 31 31 29 30 27 27 23 23 22 22 25 27 32 35 36 35 44 48 48 48 46 43 42 35 38 41 41 44 44 48 52 55
60 59 57 54 51 47 38 33 31 33 29 29 27 26 27 27 26 23 21 20 20 20 25 29 35 30 36 40 41 44 46 45 40 41 40 39 42 43 44 45 45 52 57
66 63 58 55 54 49 39 33 31 30 27 23 19 20 24 25 23 23 23 20 21 21 24 23 24 29 30 35 37 42 43 39 35 40 41 41 42 44 41 42 43 50 57
70 69 62 58 55 48 40 34 29 25 21 18 17 19 21 23 25 27 27 26 21 22 26 24 23 24 27 30 34 38 40 39 37 38 39 41 42 45 42 39 43 48 58
74 76 66 60 53 47 39 32 24 18 15 17 19 21 23 24 25 28 29 29 25 23 23 23 25 24 26 30 32 33 35 33 37 38 38 39 42 44 42 40 45 49 61
85 78 67 62 56 48 38 28 20 13 15 19 23 25 28 30 28 27 28 28 28 26 24 21 21 24 26 31 31 34 33 33 35 34 33 36 38 41 40 41 44 49 69
89 79 65 61 56 45 36 25 17 14 14 18 23 26 30 32 30 27 27 25 26 27 23 23 23 26 25 30 32 32 32 31 34 31 30 30 34 37 39 42 43 45 74
87 74 61 61 54 43 32 25 20 17 15 20 24 26 30 30 27 26 25 21 25 25 23 25 23 26 27 27 28 31 30 31 32 28 29 27 30 33 36 38 42 45 61
74 66 57 57 49 39 32 27 22 14 17 24 27 29 28 26 24 24 23 22 25 23 22 25 24 26 26 22 25 26 28 30 28 24 28 26 28 28 30 29 36 37 52
61 59 62 58 46 40 32 25 20 14 20 23 27 30 24 22 24 25 23 21 24 22 22 23 25 29 29 23 19 20 18 24 20 22 23 20 27 27 26 30 38 38 48
61 68 64 49 40 33 25 20 15 16 21 25 29 25 20 18 21 25 22 20 18 17 21 23 27 33 31 27 19 17 11 19 22 19 17 20 18 19 22 23 36 39 52
65 71 55 41 35 27 21 15 11 14 19 23 21 13 13 18 18 17 17 17 14 14 13 14 20 32 33 30 22 11 9 8 18 12 13 12 13 17 12 29 23 53 51
68 59 44 38 32 23 16 11 9 13 18 17 16 10 12 13 7 4 9 11 10 9 11 15 19 25 28 29 26 21 10 11 13 11 8 8 5 12 11 29 28 60 71
60 48 40 35 27 17 13 10 6 14 16 16 14 12 10 9 3 6 8 10 9 8 10 15 21 26 24 22 28 36 22 3 11 11 18 28 15 16 23 38 21 42 51
51 44 39 33 21 13 12 9 5 14 12 15 13 14 11 9 8 10 12 9 8 7 11 15 21 22 22 19 22 24 28 15 18 23 37 44 37 30 27 26 42 59 75
Wind_Direction_850mb
191 192 198 206 208 213 219 229 241 257 272 274 272 274 276 271 260 256 258 255 257 260 257 266 258 251 249 241 236 233 232 227 225 227 225 223 221 223 232 240 209 202 197
190 190 198 207 211 213 223 232 243 258 267 276 281 284 283 278 274 269 264 270 259 257 263 269 269 260 252 246 240 236 234 234 228 226 229 230 224 221 224 230 214 214 210
180 193 198 206 209 216 229 235 245 263 272 278 277 279 282 278 277 263 283 288 284 267 252 257 268 271 262 255 247 239 237 235 235 229 229 228 231 226 222 219 214 215 199
179 185 194 203 208 218 225 231 246 262 271 269 267 275 280 268 261 260 284 284 284 274 270 253 248 262 267 261 256 248 241 239 236 236 231 228 227 230 226 219 213 215 206
178 189 197 202 209 216 222 232 252 273 275 275 273 274 275 257 263 259 277 283 277 267 266 270 272 266 267 270 262 257 250 245 238 237 232 231 223 224 223 223 224 218 207
177 187 199 203 207 214 221 236 261 274 281 283 280 279 268 266 266 265 278 275 265 266 264 258 251 256 262 264 267 264 259 253 242 238 233 227 228 219 224 222 224 222 212
190 193 202 205 211 210 218 239 259 275 289 294 287 273 266 268 270 267 270 264 266 264 261 259 259 259 252 257 257 262 260 254 243 241 235 227 227 225 222 221 224 226 227
210 202 207 207 213 215 217 234 252 259 290 303 293 273 271 269 269 267 265 263 264 258 258 261 254 254 254 251 252 254 256 247 243 244 238 230 224 227 225 223 223 224 226
211 219 214 213 214 217 224 239 253 268 288 301 291 274 265 266 272 273 271 265 258 254 256 256 255 252 251 250 247 248 249 240 241 241 235 231 223 226 225 226 222 222 226
217 223 223 217 215 220 225 240 255 277 290 296 289 275 272 277 275 278 272 268 265 263 251 253 257 257 252 249 249 247 243 239 238 242 234 231 224 223 226 226 227 224 224
220 223 224 221 217 221 227 242 257 277 290 291 282 275 274 278 280 281 276 272 265 263 258 256 260 258 246 246 246 244 240 238 237 240 235 230 229 222 224 224 226 225 221
223 224 223 222 220 219 227 240 259 280 290 284 278 274 270 273 287 279 287 278 271 265 258 249 258 256 243 243 241 240 237 237 238 234 234 232 228 224 225 225 225 226 220
231 226 226 221 220 223 229 242 263 278 277 272 273 276 273 273 287 275 283 276 273 269 262 258 258 260 242 239 240 236 233 234 240 234 234 234 229 226 228 227 229 224 221
232 232 228 221 221 224 230 243 261 272 271 275 278 280 276 278 276 271 272 275 269 270 271 272 264 255 246 237 235 232 228 237 240 230 232 234 231 228 231 232 233 225 217
235 233 229 223 225 225 234 243 265 269 276 279 281 286 288 283 275 268 268 265 273 272 265 261 262 255 244 231 225 227 228 238 237 227 229 233 232 228 231 233 229 223 213
238 236 230 226 227 227 232 249 261 262 278 279 289 286 283 286 281 271 266 265 260 272 265 258 260 250 239 230 225 227 228 236 228 224 231 235 230 228 231 235 233 224 210
238 233 231 228 227 224 232 247 249 257 281 289 291 287 281 281 281 274 269 261 255 262 261 256 258 245 239 225 217 218 224 233 224 224 237 234 227 229 233 237 238 222 212
238 232 229 227 225 220 232 240 234 250 276 302 296 291 283 278 275 274 268 263 253 255 257 256 262 242 236 224 216 220 227 233 223 230 238 227 227 228 235 240 236 212 210
237 231 227 224 216 219 225 225 228 244 282 304 306 298 285 273 274 273 274 267 247 248 254 257 255 238 230 226 223 227 229 227 223 236 228 225 227 232 239 245 235 209 204
236 229 225 210 205 213 218 219 229 258 289 302 310 305 284 271 275 270 276 262 241 248 254 254 248 231 221 220 222 225 230 223 226 235 226 229 238 238 244 250 230 210 203
232 218 205 198 204 211 215 221 232 269 299 307 309 304 284 270 275 276 275 256 238 251 258 249 238 221 208 206 208 213 219 215 230 234 229 242 244 245 248 239 222 219 212
220 200 194 196 208 211 210 226 250 281 308 312 314 304 282 279 285 274 265 240 241 251 254 247 233 205 197 196 197 190 197 214 230 238 241 249 236 243 244 220 212 225 213
198 189 186 196 204 201 208 229 251 294 318 319 320 307 293 295 290 270 234 223 237 247 251 223 202 189 195 194 186 175 165 194 201 210 222 213 226 239 215 220 208 192 208
184 178 183 194 194 196 211 220 259 314 337 334 333 323 316 316 302 196 190 210 216 218 214 190 181 184 191 192 192 179 171 192 172 154 147 211 185 182 197 205 157 180 179
174 175 183 187 185 194 209 221 277 338 334 338 332 325 305 311 215 205 186 178 183 196 181 174 176 179 187 204 203 183 187 183 204 177 152 162 171 179 181 174 164 163 177
171 177 181 183 178 193 206 211 303 342 340 338 339 327 297 289 205 178 160 148 152 171 171 178 178 184 187 200 204 211 214 224 196 186 156 160 154 159 162 169 170 161 164